Home > Weather > Neu-Ulm > Past weeks

Flag for Germany Past Weather in Neu-Ulm, Bavaria, Germany — Yesterday and Last 2 Weeks

Now
59 °F

Fog.


Feels Like: 59 °F
Forecast: 56 / 68 °F
Wind: 2 mph from Southeast

Location: Laupheim Airport

Current Time: May 28, 2016 at 2:22:16 AM

Latest Report: May 28, 2016 at 1:20 AM


Visibility: 1 mi

Pressure: 29.98 "Hg

Humidity: 94%

Dew Point: 57 °F

Location of Neu-UlmLocation

Past Weather in Neu-Ulm — Graph

°F

Neu-Ulm Temperature Yesterday

Maximum temperature yesterday: 75 °F (at 5:20 PM)
Minimum temperature yesterday: 54 °F (at 3:20 AM)
Average temperature yesterday: 63 °F

High & Low Weather Summary for the Past Weeks

 TemperatureHumidityPressure
High81 °F (May 22, 2:20 PM)100% (May 13, 11:20 AM)30.18 "Hg (May 13, 11:20 AM)
Low41 °F (May 15, 4:20 AM)30% (May 22, 5:20 PM)29.45 "Hg (May 13, 12:20 AM)
Average53 °F76%29.95 "Hg
* Reported May 13 12:20 AM — May 28 12:20 AM, Neu-Ulm, Weather by CustomWeather, © 2016

Note: Actual official high and low records may vary slightly from our data, if they occured in-between our weather recording intervals... More about our weather records

Advertising

Neu-Ulm Weather History for the Previous 24 Hours

Scroll right to see more
 ConditionsComfort  
Time TempWeatherWind HumidityBarometerVisibility
12:20 AM
Sat, May 28
61 °FPassing clouds.2 mph94%29.98 "HgN/A
11:20 PM
Fri, May 27
61 °FThunderstorms. Partly cloudy.7 mph88%30.01 "HgN/A
10:50 PM61 °FStrong thunderstorms. Passing clouds.6 mph88%29.98 "HgN/A
10:20 PM64 °FThunderstorms. Partly cloudy.5 mph73%29.98 "HgN/A
9:20 PM64 °FBroken clouds.3 mph68%29.98 "HgN/A
8:20 PM66 °FScattered clouds.6 mph64%29.95 "HgN/A
7:20 PM68 °FScattered clouds.8 mph60%29.95 "HgN/A
6:20 PM72 °FScattered clouds.12 mph57%29.95 "HgN/A
5:48 PM75 °FThundershowers. Partly sunny.5 mph57%29.95 "HgN/A
5:20 PM75 °FPartly sunny.2 mph54%29.95 "HgN/A
4:20 PM73 °FBroken clouds.2 mph57%29.98 "HgN/A
3:20 PM73 °FPartly sunny.2 mph57%29.98 "HgN/A
2:20 PM73 °FPartly sunny.3 mph57%29.98 "HgN/A
1:20 PM72 °FScattered clouds.2 mph65%29.98 "HgN/A
12:20 PM68 °FPartly sunny.2 mph69%30.01 "HgN/A
12:00 PM66 °FPartly sunny.3 mph73%30.01 "HgN/A
11:20 AM64 °FPartly sunny.3 mph73%30.01 "HgN/A
10:20 AM63 °FPartly sunny.5 mph77%30.01 "HgN/A
9:20 AM59 °FPartly sunny.3 mph88%30.01 "HgN/A
8:20 AM57 °FBroken clouds.5 mph88%29.98 "HgN/A
7:20 AM55 °FPartly sunny.3 mph94%29.95 "HgN/A
6:20 AM54 °FPartly cloudy.2 mph94%29.95 "HgN/A
5:20 AM54 °FPartly cloudy.5 mph94%29.95 "HgN/A
4:20 AM54 °FPassing clouds.1 mph94%29.95 "HgN/A
3:20 AM54 °FPassing clouds.3 mph94%29.95 "HgN/A
2:20 AM55 °FPassing clouds.2 mph88%29.95 "HgN/A
Weather by CustomWeather, © 2016

See weather overviewHow to use our weather pages